BAW152 EGLL-KBNA

Flight info

Callsign BAW152
Flight time N/A
Altitude 34000
Route CPT L9 BUCGO DCT FELCA DCT NICXI DCT BAKUR DCT ABAGU DCT TIPUR DCT SHA DCT UNBEG DCT DOGAL/M081F360 NATA ALLRY/N0463F360 DCT TOPPS/N0477F380 DCT KAYCC DCT KYLOH DCT BAF Q406 BWZ J6 LRP/N0455F320 J6 MRB/N0475F380 J6 HVQ Q68 YOCKY DCT GROAT PASLY5
Aircraft A339/H-SADE1E2E3GHIJ3J5M1P2RWXY/LB2D1

Departure

Time 2026-05-01 14:07
Airport London Heathrow Airport (EGLL)

Arrival

Time N/A
Airport Nashville International Airport (KBNA)
Time Latitude Longitude Altitude Speed Heading
2026-05-01 13:34 51.47133 -0.48022 95 ft 0 kts 269°
2026-05-01 13:35 51.47054 -0.48021 91 ft 0 kts 269°
2026-05-01 13:59 51.47054 -0.47999 92 ft 2 kts 269°
2026-05-01 13:59 51.47054 -0.47974 91 ft 3 kts 259°
2026-05-01 13:59 51.47059 -0.47941 89 ft 3 kts 242°
2026-05-01 13:59 51.47070 -0.47909 91 ft 4 kts 222°
2026-05-01 14:00 51.47093 -0.47883 89 ft 4 kts 192°
2026-05-01 14:00 51.47112 -0.47878 90 ft 0 kts 171°
2026-05-01 14:01 51.47091 -0.47872 91 ft 7 kts 171°
2026-05-01 14:02 51.47013 -0.47871 90 ft 15 kts 180°
2026-05-01 14:02 51.46907 -0.47872 90 ft 0 kts 180°
2026-05-01 14:02 51.46898 -0.47872 90 ft 3 kts 180°
2026-05-01 14:02 51.46862 -0.47873 90 ft 7 kts 180°
2026-05-01 14:03 51.46800 -0.47874 90 ft 11 kts 181°
2026-05-01 14:03 51.46746 -0.47957 93 ft 12 kts 255°
2026-05-01 14:03 51.46745 -0.48074 94 ft 0 kts 270°
2026-05-01 14:04 51.46745 -0.48077 94 ft 2 kts 270°
2026-05-01 14:05 51.46746 -0.48141 91 ft 7 kts 270°
2026-05-01 14:05 51.46746 -0.48242 94 ft 11 kts 270°
2026-05-01 14:05 51.46744 -0.48382 92 ft 14 kts 264°
2026-05-01 14:05 51.46669 -0.48464 94 ft 14 kts 188°
2026-05-01 14:06 51.46573 -0.48472 95 ft 14 kts 182°
2026-05-01 14:06 51.46480 -0.48424 95 ft 13 kts 118°
2026-05-01 14:06 51.46475 -0.48206 95 ft 43 kts 90°
2026-05-01 14:06 51.46459 -0.47326 93 ft 113 kts 91°
2026-05-01 14:07 51.46464 -0.45749 95 ft 169 kts 91°
2026-05-01 14:07 51.46474 -0.43686 368 ft 191 kts 92°
2026-05-01 14:07 51.46530 -0.41525 995 ft 197 kts 90°
2026-05-01 14:08 51.46696 -0.37020 2202 ft 219 kts 91°
2026-05-01 14:08 51.46595 -0.34516 2549 ft 233 kts 111°
2026-05-01 14:08 51.45756 -0.32249 2829 ft 243 kts 138°
2026-05-01 14:08 51.44288 -0.30827 3153 ft 251 kts 167°
2026-05-01 14:09 51.42565 -0.30709 3721 ft 251 kts 193°
2026-05-01 14:09 51.41014 -0.31876 4316 ft 252 kts 219°
2026-05-01 14:09 51.39706 -0.33738 4876 ft 254 kts 221°
2026-05-01 14:09 51.38400 -0.35701 5373 ft 258 kts 224°
2026-05-01 14:10 51.37431 -0.38125 5929 ft 263 kts 249°
2026-05-01 14:10 51.37256 -0.41072 6425 ft 275 kts 276°
2026-05-01 14:10 51.37688 -0.44070 6918 ft 278 kts 281°
2026-05-01 14:10 51.38159 -0.47080 7462 ft 279 kts 281°
2026-05-01 14:11 51.38639 -0.50118 7928 ft 284 kts 281°
2026-05-01 14:11 51.39621 -0.56235 8972 ft 290 kts 281°
2026-05-01 14:11 51.40141 -0.59437 9206 ft 302 kts 281°
2026-05-01 14:12 51.40668 -0.62642 10035 ft 293 kts 282°
2026-05-01 14:12 51.41464 -0.65710 10423 ft 306 kts 293°
2026-05-01 14:12 51.42428 -0.68854 10568 ft 321 kts 292°
2026-05-01 14:12 51.43394 -0.72169 10718 ft 335 kts 291°
2026-05-01 14:13 51.44380 -0.75633 10917 ft 347 kts 291°
2026-05-01 14:13 51.45046 -0.77978 11235 ft 349 kts 291°
2026-05-01 14:13 51.46394 -0.82692 11848 ft 353 kts 291°
2026-05-01 14:13 51.47415 -0.86278 12258 ft 355 kts 291°
2026-05-01 14:14 51.48433 -0.89906 12716 ft 358 kts 291°
2026-05-01 14:14 51.49469 -0.93560 13208 ft 360 kts 291°
2026-05-01 14:14 51.50517 -0.97236 13679 ft 363 kts 291°
2026-05-01 14:14 51.51570 -1.00947 14141 ft 366 kts 291°
2026-05-01 14:15 51.52626 -1.04681 14565 ft 368 kts 291°
2026-05-01 14:15 51.53674 -1.08389 14983 ft 370 kts 291°
2026-05-01 14:15 51.54742 -1.12171 15375 ft 372 kts 291°
2026-05-01 14:15 51.55816 -1.15975 15775 ft 375 kts 290°
2026-05-01 14:16 51.56892 -1.19814 16175 ft 377 kts 290°
2026-05-01 14:16 51.57972 -1.23676 16585 ft 380 kts 290°
2026-05-01 14:16 51.59040 -1.27507 17026 ft 381 kts 290°
2026-05-01 14:16 51.60130 -1.31407 17387 ft 385 kts 290°
2026-05-01 14:17 51.61233 -1.35355 17806 ft 386 kts 290°
2026-05-01 14:17 51.62341 -1.39316 18206 ft 389 kts 290°
2026-05-01 14:17 51.63455 -1.43302 18565 ft 392 kts 290°
2026-05-01 14:17 51.64573 -1.47323 18928 ft 394 kts 290°
2026-05-01 14:18 51.65692 -1.51360 19300 ft 396 kts 290°
2026-05-01 14:18 51.66816 -1.55421 19660 ft 398 kts 290°
2026-05-01 14:18 51.67945 -1.59508 20021 ft 399 kts 290°
2026-05-01 14:18 51.68691 -1.62211 20275 ft 401 kts 290°
2026-05-01 14:19 51.70071 -1.67803 20739 ft 400 kts 283°
2026-05-01 14:19 51.70701 -1.72097 21118 ft 398 kts 275°
2026-05-01 14:19 51.71030 -1.76524 21478 ft 398 kts 271°
2026-05-01 14:19 51.71330 -1.80975 21827 ft 401 kts 272°
2026-05-01 14:20 51.71649 -1.85461 22201 ft 403 kts 272°
2026-05-01 14:20 51.72291 -1.94458 22945 ft 407 kts 272°
2026-05-01 14:20 51.72619 -1.99044 23320 ft 410 kts 272°
2026-05-01 14:21 51.72946 -2.03629 23686 ft 412 kts 272°
2026-05-01 14:21 51.73269 -2.08234 24007 ft 414 kts 272°
2026-05-01 14:21 51.73593 -2.12869 24351 ft 415 kts 272°
2026-05-01 14:22 51.74232 -2.22114 24978 ft 419 kts 272°
2026-05-01 14:22 51.74553 -2.26809 25292 ft 421 kts 272°
2026-05-01 14:22 51.74870 -2.31513 25623 ft 423 kts 272°
2026-05-01 14:22 51.75192 -2.36254 25941 ft 425 kts 272°
2026-05-01 14:23 51.75510 -2.40956 26252 ft 426 kts 272°
2026-05-01 14:23 51.75830 -2.45728 26549 ft 428 kts 272°
2026-05-01 14:23 51.76147 -2.50521 26852 ft 430 kts 272°
2026-05-01 14:23 51.76467 -2.55346 27146 ft 432 kts 272°
2026-05-01 14:24 51.76786 -2.60175 27419 ft 434 kts 271°
2026-05-01 14:24 51.77101 -2.65036 27704 ft 436 kts 271°
2026-05-01 14:24 51.77416 -2.69919 27993 ft 437 kts 271°
2026-05-01 14:24 51.77728 -2.74749 28254 ft 439 kts 271°
2026-05-01 14:25 51.78043 -2.79674 28513 ft 441 kts 271°
2026-05-01 14:25 51.78356 -2.84614 28782 ft 443 kts 271°
2026-05-01 14:25 51.78667 -2.89580 29054 ft 445 kts 271°
2026-05-01 14:25 51.78977 -2.94560 29321 ft 447 kts 271°
2026-05-01 14:26 51.79184 -2.97876 29494 ft 448 kts 271°
2026-05-01 14:26 51.79805 -3.07927 30018 ft 452 kts 271°
2026-05-01 14:26 51.80213 -3.14625 30328 ft 453 kts 271°
2026-05-01 14:27 51.80524 -3.19707 30575 ft 455 kts 271°
2026-05-01 14:27 51.80732 -3.23152 30757 ft 456 kts 271°
2026-05-01 14:27 51.81035 -3.28251 31013 ft 457 kts 271°
2026-05-01 14:28 51.81636 -3.38431 31528 ft 459 kts 271°
2026-05-01 14:28 51.81935 -3.43595 31799 ft 461 kts 271°
2026-05-01 14:28 51.82229 -3.48761 32024 ft 462 kts 271°
2026-05-01 14:28 51.82557 -3.53962 32244 ft 466 kts 274°
2026-05-01 14:29 51.83177 -3.59123 32448 ft 469 kts 278°
2026-05-01 14:29 51.83869 -3.64281 32640 ft 471 kts 278°
2026-05-01 14:30 51.85898 -3.79884 33146 ft 474 kts 277°
2026-05-01 14:30 51.86556 -3.85053 33267 ft 475 kts 277°
2026-05-01 14:30 51.87229 -3.90303 33394 ft 477 kts 277°
2026-05-01 14:31 51.88567 -4.00845 33611 ft 479 kts 277°
2026-05-01 14:31 51.89234 -4.06127 33741 ft 479 kts 277°
2026-05-01 14:31 51.89898 -4.11405 33898 ft 479 kts 276°
2026-05-01 14:31 51.90561 -4.16689 34040 ft 479 kts 276°
2026-05-01 14:32 51.91220 -4.21971 34170 ft 479 kts 276°
2026-05-01 14:32 51.92537 -4.32595 34180 ft 483 kts 276°
2026-05-01 14:33 51.94057 -4.43187 34193 ft 489 kts 282°
2026-05-01 14:33 51.96079 -4.53764 34175 ft 492 kts 282°
2026-05-01 14:33 52.21248 -6.43464 34274 ft 32000 kts 282°
2026-05-01 14:34 52.87339 -9.61121 34417 ft 0 kts 282°
2026-05-01 14:34 52.76591 -9.66493 34525 ft 487 kts 278°
2026-05-01 14:34 52.77610 -9.71883 34587 ft 494 kts 289°
2026-05-01 14:34 52.79238 -9.76928 34559 ft 503 kts 300°
2026-05-01 14:35 52.81302 -9.81610 34549 ft 506 kts 302°
2026-05-01 14:35 52.85009 -9.91455 34516 ft 502 kts 293°
2026-05-01 14:36 52.87903 -10.01874 34414 ft 503 kts 289°
2026-05-01 14:36 52.89260 -10.07232 34282 ft 505 kts 288°
2026-05-01 14:36 52.90601 -10.12616 34144 ft 506 kts 288°
2026-05-01 14:37 53.75921 -13.63970 34151 ft 32000 kts 288°
2026-05-01 14:37 53.97488 -14.74011 34180 ft 0 kts 288°
2026-05-01 14:37 53.98495 -14.79467 34346 ft 494 kts 288°
2026-05-01 14:38 53.99687 -14.90941 34173 ft 498 kts 278°
2026-05-01 14:38 54.00050 -15.02722 34137 ft 497 kts 276°
2026-05-01 14:39 54.00382 -15.14440 34127 ft 495 kts 275°
2026-05-01 14:39 54.00645 -15.26057 34131 ft 494 kts 275°
2026-05-01 14:40 54.00857 -15.37798 34136 ft 493 kts 275°
2026-05-01 14:40 54.01054 -15.49384 34149 ft 492 kts 275°
2026-05-01 14:41 54.01240 -15.61018 34149 ft 492 kts 275°
2026-05-01 14:41 54.01411 -15.72658 34150 ft 491 kts 275°
2026-05-01 14:42 54.01571 -15.84260 34154 ft 490 kts 275°
2026-05-01 14:42 54.01721 -15.95781 34157 ft 490 kts 275°
2026-05-01 14:43 54.08108 -17.15319 34125 ft 32000 kts 275°
2026-05-01 14:43 53.98430 -19.35003 34043 ft 0 kts 275°
2026-05-01 14:43 54.00256 -19.79639 34210 ft 471 kts 280°
2026-05-01 14:43 54.00452 -19.85128 34603 ft 464 kts 276°
2026-05-01 14:44 54.00380 -19.90630 34570 ft 468 kts 273°
2026-05-01 14:44 53.99965 -20.01698 34257 ft 475 kts 270°
2026-05-01 14:44 53.99567 -20.07272 34238 ft 475 kts 269°
2026-05-01 14:45 53.98574 -20.23835 34235 ft 468 kts 270°
2026-05-01 14:46 53.97950 -20.34800 34256 ft 469 kts 270°
2026-05-01 14:46 53.96968 -20.51386 34247 ft 470 kts 270°
2026-05-01 14:47 53.96299 -20.62449 34253 ft 470 kts 269°
2026-05-01 14:48 53.95267 -20.78954 34255 ft 470 kts 269°
2026-05-01 14:48 53.94210 -20.95501 34265 ft 470 kts 269°
2026-05-01 14:49 53.92769 -21.17501 34265 ft 470 kts 269°
2026-05-01 14:50 53.03096 -29.34387 34161 ft 467 kts 269°
2026-05-01 14:51 53.03100 -29.39719 34522 ft 457 kts 278°
2026-05-01 14:51 53.04664 -29.49801 34443 ft 454 kts 293°
2026-05-01 14:52 53.06215 -29.59987 34457 ft 461 kts 276°
2026-05-01 14:52 53.06171 -29.65335 34455 ft 465 kts 269°
2026-05-01 14:53 53.05202 -29.81430 34461 ft 467 kts 267°
2026-05-01 14:53 53.04544 -29.92184 34454 ft 468 kts 268°
2026-05-01 14:54 53.03905 -30.02955 34453 ft 468 kts 268°
2026-05-01 14:54 53.03266 -30.13660 34465 ft 469 kts 267°
2026-05-01 14:55 53.02610 -30.24448 34472 ft 469 kts 267°
2026-05-01 14:55 53.01935 -30.35236 34471 ft 469 kts 267°
2026-05-01 14:56 53.01246 -30.46026 34478 ft 469 kts 266°
2026-05-01 14:56 53.00558 -30.56760 34478 ft 470 kts 266°
2026-05-01 14:57 52.99850 -30.67564 34477 ft 470 kts 266°
2026-05-01 14:57 52.98771 -30.83678 34483 ft 470 kts 266°
2026-05-01 14:58 52.98039 -30.94469 34477 ft 470 kts 266°
2026-05-01 14:58 52.97297 -31.05269 34481 ft 471 kts 266°
2026-05-01 14:59 52.96546 -31.16065 34483 ft 471 kts 266°
2026-05-01 14:59 52.95788 -31.26784 34483 ft 471 kts 265°
2026-05-01 15:00 52.94626 -31.42973 34488 ft 471 kts 265°
2026-05-01 15:01 52.93839 -31.53776 34490 ft 472 kts 265°
2026-05-01 15:01 52.93042 -31.64576 34493 ft 472 kts 265°
2026-05-01 15:02 52.92237 -31.75326 34493 ft 472 kts 265°
2026-05-01 15:02 52.91422 -31.86128 34495 ft 472 kts 265°
2026-05-01 15:03 52.90592 -31.96931 34494 ft 473 kts 264°
2026-05-01 15:03 52.89752 -32.07756 34496 ft 473 kts 264°
2026-05-01 15:04 52.88901 -32.18571 34497 ft 473 kts 264°
2026-05-01 15:04 52.88048 -32.29316 34498 ft 473 kts 264°
2026-05-01 15:05 52.87179 -32.40137 34498 ft 474 kts 264°
2026-05-01 15:05 52.86299 -32.50963 34509 ft 474 kts 264°
2026-05-01 15:06 52.85408 -32.61779 34503 ft 474 kts 263°
2026-05-01 15:06 52.84510 -32.72591 34499 ft 475 kts 263°
2026-05-01 15:07 52.83603 -32.83353 34502 ft 475 kts 263°
2026-05-01 15:07 52.82684 -32.94171 34505 ft 475 kts 263°
2026-05-01 15:08 52.81757 -33.05003 34506 ft 476 kts 263°
2026-05-01 15:08 52.80813 -33.15831 34506 ft 476 kts 263°
2026-05-01 15:09 52.79859 -33.26666 34511 ft 476 kts 262°
2026-05-01 15:09 52.78895 -33.37507 34504 ft 476 kts 262°
2026-05-01 15:10 52.77931 -33.48273 34509 ft 476 kts 262°
2026-05-01 15:10 52.76457 -33.64447 34513 ft 476 kts 262°
2026-05-01 15:11 52.74956 -33.80686 34513 ft 476 kts 262°
2026-05-01 15:12 52.73949 -33.91432 34512 ft 476 kts 262°
2026-05-01 15:12 52.72413 -34.07649 34515 ft 476 kts 261°
2026-05-01 15:14 52.69809 -34.34563 34522 ft 476 kts 261°
2026-05-01 15:14 52.68220 -34.50673 34519 ft 476 kts 261°
2026-05-01 15:15 52.66064 -34.72176 34520 ft 476 kts 260°
2026-05-01 15:16 52.63861 -34.93740 34523 ft 477 kts 260°
2026-05-01 15:18 52.61245 -35.18809 34522 ft 477 kts 259°
2026-05-01 15:19 52.58960 -35.40322 34521 ft 478 kts 259°
2026-05-01 15:19 52.57206 -35.56534 34523 ft 479 kts 259°
2026-05-01 15:20 52.55440 -35.72658 34524 ft 479 kts 259°
2026-05-01 15:21 52.54255 -35.83385 34527 ft 479 kts 259°
2026-05-01 15:21 52.53051 -35.94175 34530 ft 480 kts 258°
2026-05-01 15:22 52.51222 -36.10361 34525 ft 480 kts 258°
2026-05-01 15:22 52.49999 -36.21086 34529 ft 480 kts 258°
2026-05-01 15:23 52.48758 -36.31875 34525 ft 480 kts 258°
2026-05-01 15:23 52.47507 -36.42666 34529 ft 481 kts 258°
2026-05-01 15:24 52.46256 -36.53380 34527 ft 481 kts 257°
2026-05-01 15:24 52.44979 -36.64183 34527 ft 482 kts 257°
2026-05-01 15:25 52.43691 -36.74995 34532 ft 482 kts 257°
2026-05-01 15:25 52.42402 -36.85712 34528 ft 482 kts 257°
2026-05-01 15:26 52.41097 -36.96524 34528 ft 483 kts 257°
2026-05-01 15:26 52.39794 -37.07256 34530 ft 483 kts 256°
2026-05-01 15:27 52.38465 -37.18054 34529 ft 483 kts 256°
2026-05-01 15:28 52.36458 -37.34209 34530 ft 484 kts 256°
2026-05-01 15:28 52.35104 -37.45012 34532 ft 484 kts 256°
2026-05-01 15:29 52.33057 -37.61164 34535 ft 485 kts 255°
2026-05-01 15:30 52.30292 -37.82720 34532 ft 486 kts 255°
2026-05-01 15:31 52.26050 -38.15160 34534 ft 487 kts 255°
2026-05-01 15:32 52.23166 -38.36790 34539 ft 489 kts 254°
2026-05-01 15:34 52.18759 -38.69257 34534 ft 491 kts 254°